Puyallup, WA
on Thursday, January 3, 2013

Thursday
Previous Day Next Day
Daily Summary
 ActualAverage (KSEA)Record (KSEA)
Temperature
Mean Temperature °F 41°F  
Max Temperature 41°F 46°F 58°F (1984)
Min Temperature 19°F 36°F 6°F (1950)
Degree Days
Heating Degree Days 35 24  
Month to date heating degree days 72  
Since 1 July heating degree days 2010  
Cooling Degree Days 0 0  
Month to date cooling degree days 0  
Year to date cooling degree days 0  
Moisture
Dew Point 30°F   
Average Humidity 94    
Maximum Humidity 100    
Minimum Humidity 65    
Precipitation
Precipitation 0.04 in 0.19 in 1.01 in (1978)
Month to date precipitation 0.55  
Year to date precipitation 0.55  
Snow
Snow 0.00 in in 2.60 in (1952)
Month to date snowfall  
Since 1 July snowfall  
Snow Depth in   
Wind
Wind Speed 0 mph   
Max Wind Speed 4 mph   
Max Gust Speed mph   
Visibility 9 miles   
Events Rain , Snow   

Key: T is trace of precipitation, MM is missing value
Source: NWS Daily Summary
Time(PST)TemperatureDew PointHumidity Pressure Visibility Wind DirectionWind SpeedGust SpeedPrecipitationEvents Conditions
12:15 AM 24.8°F 24.8°F 100% 30.18 in 8.0 miles Calm Calm - N/A   Clear
12:35 AM 26.6°F 26.6°F 100% 30.18 in 9.0 miles Calm Calm - N/A   Clear
12:55 AM 24.8°F 24.8°F 100% 30.18 in 9.0 miles Calm Calm - N/A   Clear
1:15 AM 23.0°F 23.0°F 100% 30.18 in 8.0 miles Calm Calm - N/A   Clear
1:35 AM 24.8°F 24.8°F 100% 30.19 in 10.0 miles Calm Calm - N/A   Clear
1:55 AM 24.8°F 24.8°F 100% 30.19 in 9.0 miles Calm Calm - N/A   Clear
2:15 AM 24.8°F 24.8°F 100% 30.19 in 9.0 miles Calm Calm - N/A   Clear
2:35 AM 24.8°F 24.8°F 100% 30.18 in 10.0 miles Calm Calm - N/A   Clear
2:55 AM 24.8°F 24.8°F 100% 30.18 in 10.0 miles Calm Calm - N/A   Clear
3:15 AM 23.0°F 23.0°F 100% 30.18 in 10.0 miles Calm Calm - N/A   Clear
3:35 AM 23.0°F 23.0°F 100% 30.17 in 10.0 miles Calm Calm - N/A   Clear
3:55 AM 23.0°F 23.0°F 100% 30.16 in 8.0 miles Calm Calm - N/A   Clear
4:15 AM 23.0°F 23.0°F 100% 30.16 in 10.0 miles Calm Calm - N/A   Clear
4:35 AM 23.0°F 23.0°F 100% 30.15 in 10.0 miles Calm Calm - N/A   Clear
4:55 AM 23.0°F 23.0°F 100% 30.14 in 10.0 miles Calm Calm - N/A   Clear
5:15 AM 23.0°F 23.0°F 100% 30.14 in 10.0 miles Calm Calm - N/A   Clear
5:35 AM 21.2°F 21.2°F 100% 30.13 in 10.0 miles Calm Calm - N/A   Clear
5:55 AM 23.0°F 23.0°F 100% 30.13 in 10.0 miles Calm Calm - N/A   Clear
6:15 AM 21.2°F 19.4°F 93% 30.12 in 10.0 miles Calm Calm - N/A   Clear
6:35 AM 19.4°F 19.4°F 100% 30.12 in 10.0 miles Calm Calm - N/A   Clear
6:55 AM 23.0°F 23.0°F 100% 30.13 in 10.0 miles Calm Calm - N/A   Clear
7:35 AM 23.0°F 23.0°F 100% 30.11 in 10.0 miles Calm Calm - N/A   Partly Cloudy
7:55 AM 23.0°F 23.0°F 100% 30.11 in 10.0 miles Calm Calm - N/A   Partly Cloudy
8:15 AM 23.0°F 23.0°F 100% 30.11 in 10.0 miles Calm Calm - N/A   Clear
8:35 AM 23.0°F 23.0°F 100% 30.11 in 10.0 miles Calm Calm - N/A   Clear
8:55 AM 24.8°F 24.8°F 100% 30.12 in 10.0 miles Calm Calm - N/A   Clear
9:15 AM 26.6°F 26.6°F 100% 30.13 in 10.0 miles Calm Calm - N/A   Clear
9:35 AM 28.4°F 28.4°F 100% 30.13 in 10.0 miles Calm Calm - N/A   Clear
9:55 AM 30.2°F 30.2°F 100% 30.13 in 10.0 miles Calm Calm - N/A   Clear
10:15 AM 32.0°F 32.0°F 100% 30.14 in 10.0 miles Calm Calm - N/A Snow Light Snow
10:35 AM 32.0°F 32.0°F 100% 30.15 in 10.0 miles Calm Calm - N/A Snow Light Snow
10:55 AM 33.8°F 32.0°F 93% 30.14 in 10.0 miles Calm Calm - N/A   Clear
11:15 AM 35.6°F 32.0°F 87% 30.13 in 10.0 miles Calm Calm - N/A   Clear
11:35 AM 37.4°F 32.0°F 81% 30.13 in 10.0 miles Calm Calm - N/A   Clear
11:55 AM 37.4°F 32.0°F 81% 30.13 in 10.0 miles Calm Calm - N/A   Clear
12:15 PM 37.4°F 32.0°F 81% 30.12 in 10.0 miles Calm Calm - N/A   Clear
12:35 PM 39.2°F 32.0°F 75% 30.12 in 10.0 miles Calm Calm - N/A   Clear
12:55 PM 39.2°F 32.0°F 75% 30.11 in 10.0 miles Calm Calm - N/A   Clear
1:15 PM 41.0°F 32.0°F 70% 30.10 in 10.0 miles Calm Calm - N/A   Clear
1:35 PM 41.0°F 30.2°F 65% 30.10 in 10.0 miles Calm Calm - N/A   Clear
1:55 PM 41.0°F 32.0°F 70% 30.10 in 10.0 miles Calm Calm - N/A   Clear
2:15 PM 41.0°F 32.0°F 70% 30.11 in 10.0 miles Calm Calm - N/A   Clear
2:35 PM 39.2°F 32.0°F 75% 30.13 in 10.0 miles Calm Calm - N/A   Clear
2:55 PM 37.4°F 32.0°F 81% 30.14 in 10.0 miles WSW 3.5 mph - N/A   Clear
3:15 PM 37.4°F 32.0°F 81% 30.13 in 10.0 miles Calm Calm - N/A   Clear
3:35 PM 37.4°F 32.0°F 81% 30.12 in 10.0 miles Calm Calm - N/A   Clear
3:55 PM 37.4°F 32.0°F 81% 30.12 in 10.0 miles Calm Calm - N/A   Clear
4:15 PM 37.4°F 32.0°F 81% 30.12 in 10.0 miles Calm Calm - N/A   Clear
4:35 PM 35.6°F 32.0°F 87% 30.12 in 10.0 miles Calm Calm - N/A   Partly Cloudy
4:55 PM 35.6°F 32.0°F 87% 30.10 in 10.0 miles Calm Calm - N/A   Partly Cloudy
5:15 PM 37.4°F 32.0°F 81% 30.09 in 10.0 miles Calm Calm - N/A   Scattered Clouds
5:35 PM 37.4°F 32.0°F 81% 30.11 in 8.0 miles Calm Calm - N/A Rain Light Rain
5:55 PM 35.6°F 33.8°F 93% 30.12 in 10.0 miles Calm Calm - N/A Rain Light Rain
6:15 PM 35.6°F 33.8°F 93% 30.11 in 5.0 miles Calm Calm - 0.01 in Rain Light Rain
6:35 PM 35.6°F 35.6°F 100% 30.11 in - Calm Calm - 0.02 in Rain Light Rain
6:55 PM 35.6°F 35.6°F 100% 30.11 in - Calm Calm - 0.03 in Rain Light Rain
7:15 PM 35.6°F 35.6°F 100% 30.11 in 9.0 miles Calm Calm - N/A   Mostly Cloudy
7:35 PM 35.6°F 35.6°F 100% 30.11 in 9.0 miles Calm Calm - N/A Rain Light Rain
7:55 PM 35.6°F 35.6°F 100% 30.11 in 10.0 miles Calm Calm - N/A Rain Light Rain
8:15 PM 35.6°F 35.6°F 100% 30.11 in 7.0 miles Calm Calm - N/A   Overcast
8:35 PM 35.6°F 35.6°F 100% 30.11 in 3.0 miles Calm Calm - N/A Rain Light Rain
8:55 PM 35.6°F 35.6°F 100% 30.11 in 6.0 miles Calm Calm - N/A Rain Light Rain
9:15 PM 35.6°F 35.6°F 100% 30.12 in 7.0 miles Calm Calm - N/A   Overcast
9:35 PM 35.6°F 35.6°F 100% 30.12 in 8.0 miles Calm Calm - N/A   Overcast
9:55 PM 35.6°F 35.6°F 100% 30.12 in 4.0 miles Calm Calm - N/A Rain Light Rain
10:15 PM 35.6°F 35.6°F 100% 30.13 in 5.0 miles Calm Calm - N/A   Overcast
10:35 PM 35.6°F 35.6°F 100% 30.14 in 5.0 miles Calm Calm - 0.01 in Rain Light Rain
10:55 PM 35.6°F 35.6°F 100% 30.15 in 4.0 miles Calm Calm - 0.01 in Rain Light Rain
11:15 PM 35.6°F 35.6°F 100% 30.15 in 3.0 miles Calm Calm - N/A Rain Light Rain
11:35 PM 35.6°F 35.6°F 100% 30.15 in 5.0 miles Calm Calm - N/A Rain Light Rain
11:55 PM 35.6°F 35.6°F 100% 30.15 in 4.0 miles Calm Calm - N/A   Overcast
Moon Phase
Jan. 03 Jan. 04 Jan. 11 Jan. 18 Jan. 26
Sunrise:07:55 AM (PST) Moon Rise:11:43 PM (PST)1/3
Sunset:04:32 PM (PST) Moon Set:10:43 AM (PST)1/3

Copyright © 2014 The Weather Underground, Inc.